Location: Clanezzo
(45.7500°N, 9.6000°E)
Time: 07:44:03
(UTC+00:00)

AO-92 - Pass Details

Date: 02 July 2022
Orbit: 469 x 481 km, 97.4° (Epoch: 17 August)

Event Time Altitude Azimuth Distance (km) Brightness Sun altitude
Exits shadow 20:50:07 20° 125° (SE) 1,155 ? -12.7°
Maximum altitude 20:52:02 36° 71° (ENE) 785 ? -12.9°
Drops below altitude 10° 20:55:20 10° 4° (N) 1,670 ? -13.2°
Sets 20:57:30 0° 356° (N) 2,558 ? -13.5°
